Time,B instrument,Bx,By,Bz,sigma B,Ion instrument,Status,Tp_par,Tp_perp,carrot,r_sun,clat,clong,earth_he_angle,n_p,vp_x,vp_y,vp_z,vth_p_par,vth_p_perp
1980-01-22 00:00:23,1,-4.1,4.11667,2.5,0.318416,1,1,44133.2,43986.8,1691,0.89765757,2.7353268,321.427,292.44653,5.47794,331.118,18.0552,-0.288522,26.9923,26.9475
1980-01-22 00:01:44,1,-4.33333,3.73333,2.96667,0.648074,1,1,46389.7,43618.4,1691,0.89766127,2.7352581,321.41504,292.44629,5.34688,331.341,15.8425,-2.44969,27.6738,26.8345
1980-01-22 00:03:05,1,-4.76667,2.83333,4.13333,0.258199,1,1,38333.8,42024.8,1691,0.89766878,2.7351227,321.39917,292.44604,5.484,324.566,8.06887,11.1853,25.1564,26.3397
1980-01-22 00:04:26,1,-5.32,2.14,4.32,0.271293,1,1,36710.5,38709.2,1691,0.89767253,2.735055,321.38745,292.44604,5.02557,322.519,5.83362,12.2423,24.618,25.2793
1980-01-22 00:05:47,1,-5.5,2.45,4.0,0.180278,1,1,36131.4,40433.5,1691,0.89767623,2.7349863,321.37549,292.4458,4.72088,322.876,7.09906,10.2486,24.4231,25.8362
1980-01-22 00:07:08,1,-5.36667,1.73333,3.8,0.343188,1,1,51245.6,41786.4,1691,0.89768374,2.7348509,321.36353,292.44556,5.48467,323.483,11.4392,8.90903,29.0861,26.2649
1980-01-22 00:08:29,1,-5.03333,2.46667,3.86667,0.251661,1,1,37660.7,45571.1,1691,0.89768749,2.7347832,321.35181,292.44556,4.95083,323.792,7.94604,10.6621,24.9346,27.4285
1980-01-22 00:09:50,1,-5.0,2.58,3.92,0.301993,1,1,40296.5,42682.7,1691,0.89769125,2.7347155,321.33984,292.44531,5.30861,324.38,6.44771,11.2515,25.7924,26.5451
1980-01-22 00:11:11,1,-5.2,2.62,3.84,0.32249,1,1,41689.4,42250.2,1691,0.8976987,2.7345791,321.32397,292.44507,5.22893,323.605,8.57612,11.0711,26.2344,26.4102
1980-01-22 00:12:32,1,-5.06667,2.68333,3.86667,0.314907,1,1,43938.0,42531.5,1691,0.89770246,2.7345114,321.31226,292.44507,5.31793,323.432,9.82402,11.0155,26.9326,26.498
1980-01-22 00:13:53,1,-5.05,2.63333,3.8,0.323608,1,1,41341.8,44727.9,1691,0.89770621,2.7344437,321.30029,292.44482,5.39981,323.201,10.4427,12.0039,26.1248,27.1736
1980-01-22 00:15:14,1,-5.13333,2.81667,4.0,0.153659,1,1,40011.7,44910.1,1691,0.89771366,2.7343073,321.28833,292.44458,5.1599,324.723,10.5963,11.3574,25.7011,27.2289
1980-01-22 00:16:35,1,-4.8,2.9,4.0,0.0,1,1,39142.9,44164.8,1691,0.89771742,2.7342396,321.27661,292.44458,5.26538,323.99,11.0391,13.3462,25.4205,27.002
1980-01-22 00:17:56,1,-4.72,3.06,3.94,0.2498,1,1,41637.8,40142.5,1691,0.89772117,2.7341719,321.26465,292.44434,5.01057,324.049,10.8261,14.4361,26.2181,25.7431
1980-01-22 00:19:17,1,-4.8,3.1,3.88,0.318748,1,1,39026.2,37620.5,1691,0.89772862,2.7340355,321.24878,292.44409,4.93662,325.058,11.8666,12.7315,25.3826,24.9213
1980-01-22 00:20:38,1,-4.8,2.9,3.8,0.2,1,1,36296.1,41989.6,1691,0.89773238,2.7339678,321.23706,292.44409,5.11655,323.575,10.8711,11.4648,24.4787,26.3287
1980-01-22 00:21:59,1,-4.93333,2.9,4.26667,0.278887,1,1,36870.3,44826.7,1691,0.89773613,2.7339001,321.2251,292.44385,5.19123,321.719,8.50097,12.5721,24.6715,27.2036
1980-01-22 00:23:20,1,-4.9,2.96667,4.11667,0.277389,1,1,39411.1,38348.6,1691,0.89774364,2.7337646,321.21313,292.4436,4.90889,323.784,11.1307,11.1874,25.5075,25.1613
1980-01-22 00:24:41,1,-4.73333,3.03333,3.95,0.23863,1,1,36799.0,41127.7,1691,0.89774734,2.733696,321.20142,292.4436,5.11037,325.401,14.0775,11.166,24.6477,26.057
1980-01-22 00:26:02,1,-4.86667,3.03333,3.9,0.253859,1,1,42120.9,40357.1,1691,0.89775485,2.7335606,321.18945,292.44336,5.38398,324.611,12.9631,9.78174,26.3698,25.8118
1980-01-22 00:27:23,1,-4.82,3.1,3.78,0.295296,1,1,43595.8,43225.7,1691,0.8977586,2.7334929,321.17749,292.44312,5.46883,322.811,11.5218,13.7165,26.8275,26.7134
1980-01-22 00:28:44,1,-5.04,2.84,4.0,0.20199,1,1,44256.1,43385.1,1691,0.8977623,2.7334242,321.16187,292.44312,5.21261,323.334,11.8273,11.0882,27.0299,26.7626
1980-01-22 00:30:05,1,-5.0,2.76,3.84,0.323728,1,1,42747.5,39682.0,1691,0.89776981,2.7332888,321.1499,292.44287,4.82234,323.575,13.0114,10.9503,26.5652,25.595
1980-01-22 00:31:26,1,-5.32,2.48,4.32,0.323728,1,1,40770.0,34966.3,1691,0.89777356,2.7332211,321.13794,292.44263,4.83804,320.889,7.37609,12.9176,25.9435,24.0261
1980-01-22 00:32:47,1,-5.13333,2.36667,4.2,0.278887,1,1,40596.5,41849.4,1691,0.89777732,2.7331533,321.12622,292.44263,5.01515,321.038,9.06122,15.0834,25.8882,26.2847
1980-01-22 00:34:08,1,-5.13333,2.36667,4.26667,0.270801,1,1,38412.4,37311.1,1691,0.89778477,2.733017,321.11426,292.44238,5.11496,320.863,7.64861,13.0832,25.1822,24.8186
1980-01-22 00:35:29,1,-5.16667,2.1,4.4,0.262467,1,1,40617.1,45210.9,1691,0.89778852,2.7329493,321.10229,292.44214,5.36787,321.324,8.65292,13.4238,25.8948,27.3199
1980-01-22 00:36:50,1,-4.94,2.22,4.48,0.222711,1,1,41788.1,44901.3,1691,0.89779228,2.7328815,321.08667,292.44214,5.64878,321.891,9.19736,13.7937,26.2654,27.2262
1980-01-22 00:38:11,1,-5.32,2.48,4.4,0.281425,1,1,40045.2,42281.3,1691,0.89779973,2.7327452,321.07471,292.44189,4.95773,321.896,11.283,14.5481,25.7118,26.42
1980-01-22 00:39:32,1,-5.4,2.3,4.46667,0.149071,1,1,37718.6,38206.6,1691,0.89780349,2.7326775,321.06274,292.44165,5.08384,321.408,6.1125,13.5651,24.9537,25.1146
1980-01-22 00:40:53,1,-5.5,1.83333,4.46667,0.307318,1,1,35487.3,44128.2,1691,0.89780724,2.7326097,321.05103,292.44165,5.15023,320.775,4.28451,14.4813,24.2044,26.9908
1980-01-22 00:42:14,1,-5.32,1.5,4.4,0.222711,1,1,38349.9,32011.0,1691,0.89781469,2.7324734,321.03906,292.44141,4.91251,319.5,3.30457,17.6857,25.1617,22.9883
1980-01-22 00:43:35,1,-5.4,-1.02,4.1,0.271293,1,1,51277.5,31977.0,1691,0.89781845,2.7324057,321.0271,292.44116,4.85118,322.311,-14.09,11.9247,29.0952,22.9761
1980-01-22 00:44:56,1,-5.36667,-0.0833333,3.83333,0.386221,1,1,44937.8,40824.9,1691,0.8978222,2.732338,321.01147,292.44116,5.69038,321.688,-9.8299,10.7058,27.2373,25.9609
1980-01-22 00:46:17,1,-5.16667,0.566667,3.7,0.166667,1,1,45237.7,39148.2,1691,0.89782971,2.7322025,320.99951,292.44092,5.09027,320.296,-6.15127,10.2781,27.328,25.4223
1980-01-22 00:47:38,1,-5.18,0.76,3.5,0.303315,1,1,43454.9,41448.7,1691,0.89783341,2.7321339,320.98755,292.44067,5.41676,320.493,-3.48769,7.84887,26.7841,26.1585
1980-01-22 00:48:59,1,-5.38,0.92,2.98,0.254558,1,1,46881.1,41181.2,1691,0.89783716,2.7320662,320.97583,292.44067,5.46127,321.637,-3.66749,4.52624,27.82,26.074
1980-01-22 00:50:20,1,-5.3,0.9,2.8,4.44089e-16,1,1,36119.4,38237.9,1691,0.89784467,2.7319307,320.96387,292.44043,5.25971,321.339,-2.4101,4.17236,24.419,25.1249
1980-01-22 00:51:41,1,-5.43333,1.33333,2.66667,0.251661,1,1,47058.0,40327.8,1691,0.89784837,2.7318621,320.9519,292.44019,5.4711,320.823,-0.345426,3.41773,27.8724,25.8024
1980-01-22 00:53:02,1,-5.16,1.64,3.36,0.373095,1,1,43225.9,42815.2,1691,0.89785588,2.7317266,320.93604,292.43994,5.68854,322.885,2.27751,5.12971,26.7134,26.5862
1980-01-22 00:54:23,1,-4.88,1.54,3.76,0.531413,1,1,46341.9,45747.6,1691,0.89785963,2.7316589,320.92432,292.43994,5.31921,320.111,1.85811,10.7693,27.6595,27.4816
1980-01-22 00:55:44,1,-5.21667,1.93333,2.93333,0.281366,1,1,44992.4,43830.0,1691,0.89786339,2.7315912,320.91235,292.4397,5.37736,321.209,5.77315,3.50402,27.2538,26.8995
1980-01-22 00:57:05,1,-4.9,2.45,2.66667,0.279384,1,1,41489.9,42595.3,1691,0.89787084,2.7314548,320.90039,292.43945,5.17063,323.453,8.67139,1.11561,26.1715,26.5179
1980-01-22 00:58:26,1,-4.94,2.38,2.0,0.219089,1,1,37722.5,38487.4,1691,0.89787459,2.7313871,320.88867,292.43945,5.41422,323.004,9.33161,-2.4668,24.955,25.2068
1980-01-22 00:59:47,1,-4.94,2.54,1.6,0.269815,1,1,39734.7,38179.5,1691,0.89787835,2.7313194,320.87671,292.43921,5.10876,324.199,11.9159,-5.13687,25.612,25.1057
1980-01-22 01:01:08,1,-4.98333,2.46667,2.2,0.311359,1,1,44364.3,42062.0,1691,0.8978858,2.7311831,320.86475,292.43896,5.07155,322.845,8.78013,-0.737868,27.0629,26.3514
1980-01-22 01:02:29,1,-4.96667,2.58333,2.6,0.337062,1,1,42876.6,44526.7,1691,0.89788955,2.7311153,320.84912,292.43896,4.70541,320.836,11.176,1.88686,26.6053,27.1124
1980-01-22 01:03:50,1,-4.94,2.44,3.28,0.215407,1,1,32986.2,42630.8,1691,0.89789331,2.7310476,320.83716,292.43872,4.95236,319.469,6.62859,8.10388,23.3359,26.5289
1980-01-22 01:05:11,1,-4.9,2.0,3.36,0.195959,1,1,42797.9,47632.5,1691,0.89790076,2.7309122,320.8252,292.43848,4.98125,320.474,6.08325,9.64687,26.5809,28.042
1980-01-22 01:06:32,1,-4.63333,2.85,2.83333,0.428499,1,1,39577.6,43115.9,1691,0.89790452,2.7308435,320.81323,292.43823,5.20353,321.314,11.2006,5.27287,25.5613,26.6794
1980-01-22 01:07:53,1,-4.56667,3.03333,2.6,0.366667,1,1,43080.7,42373.0,1691,0.89790821,2.7307758,320.80151,292.43823,5.15236,323.124,13.7936,2.86139,26.6685,26.4486
1980-01-22 01:09:14,1,-4.7,2.96667,2.48333,0.289156,1,1,35100.3,38497.0,1691,0.89791572,2.7306404,320.78955,292.43799,4.38853,320.631,13.0108,0.895312,24.0721,25.2099
1980-01-22 01:10:35,1,-4.78,2.34,2.64,0.355528,1,1,41315.9,41988.2,1691,0.89791948,2.7305727,320.77368,292.43774,4.94663,320.058,7.33793,3.99392,26.1166,26.3282
1980-01-22 01:11:56,1,-4.84,2.28,2.96,0.32619,1,1,37059.3,40489.1,1691,0.89792317,2.730504,320.76196,292.43774,4.72035,317.9,6.35866,4.15512,24.7347,25.854
1980-01-22 01:13:17,1,-4.74,2.42,3.28,0.278568,1,1,38386.8,41759.7,1691,0.89793068,2.7303686,320.75,292.4375,5.23169,317.124,6.2507,7.76592,25.1738,26.2565
1980-01-22 01:14:38,1,-4.5,3.0,2.06,0.195959,1,1,34368.7,39808.5,1691,0.89793438,2.7303009,320.73804,292.43726,4.74624,320.081,10.8465,-4.13051,23.8199,25.6357
1980-01-22 01:15:59,1,-4.62,2.54,2.72,0.24,1,1,39352.1,38797.3,1691,0.89793813,2.7302322,320.72632,292.43726,4.99397,320.813,10.4403,2.67499,25.4884,25.308
1980-01-22 01:17:20,1,-4.91667,2.21667,3.0,0.32059,1,1,37567.0,44625.8,1691,0.89794558,2.7300968,320.71436,292.43701,4.79801,318.9,4.94067,5.66043,24.9035,27.1426
1980-01-22 01:18:41,1,-4.96667,2.13333,2.66667,0.282843,1,1,43841.6,43292.3,1691,0.89794934,2.7300291,320.69849,292.43677,5.26838,320.758,8.69588,3.93236,26.903,26.7339
1980-01-22 01:20:02,1,-4.96667,1.38333,3.0,0.321887,1,1,41254.7,40485.6,1691,0.89795685,2.7298937,320.68652,292.43652,5.09314,317.303,0.0489743,5.63648,26.0972,25.8528
1980-01-22 01:21:23,1,-5.1,1.5,2.56,0.195959,1,1,48299.9,41766.6,1691,0.89796054,2.729825,320.6748,292.43652,4.91785,318.813,-1.22491,3.59401,28.2378,26.2586
1980-01-22 01:22:44,1,-5.38,1.26,2.48,0.299333,1,1,50245.7,39080.6,1691,0.8979643,2.7297573,320.66284,292.43628,5.23112,318.936,-1.18322,3.34142,28.801,25.4003
1980-01-22 01:24:05,1,-5.36667,1.2,2.4,0.268742,1,1,41742.6,42016.3,1691,0.89797175,2.7296219,320.65088,292.43604,4.58714,316.996,-2.81633,3.02942,26.2511,26.337
1980-01-22 01:25:26,1,-5.03333,1.33333,2.06667,0.33665,1,1,35384.7,43219.5,1691,0.8979755,2.7295542,320.63916,292.43604,4.87723,317.343,0.646643,2.6439,24.1694,26.7115
1980-01-22 01:26:47,1,-5.06667,1.66667,1.8,0.366667,1,1,42276.3,39880.1,1691,0.89797926,2.7294855,320.6272,292.43579,5.03355,317.768,3.78076,-2.36159,26.4184,25.6588
1980-01-22 01:28:08,1,-5.1,1.4,1.93333,0.149071,1,1,36619.3,41177.7,1691,0.89798671,2.7293501,320.61133,292.43555,5.10521,318.678,0.367206,-2.1546,24.5874,26.0729
1980-01-22 01:29:29,1,-4.83333,1.85,1.4,0.285287,1,1,44525.7,44524.1,1691,0.89799047,2.7292824,320.59961,292.43555,5.18799,321.359,2.70228,-5.64119,27.1121,27.1116
1980-01-22 01:30:50,1,-5.1,1.9,2.2,0.3,1,1,36794.5,39002.0,1691,0.89799422,2.7292147,320.58765,292.4353,4.59754,318.128,4.45169,2.79097,24.6462,25.3747
1980-01-22 01:32:11,1,-5.22,1.84,1.92,0.430813,1,1,49243.3,47321.6,1691,0.89800167,2.7290783,320.57568,292.43506,5.11291,320.915,6.5846,-1.24042,28.5122,27.9504
1980-01-22 01:33:32,1,-5.03333,1.93333,2.13333,0.282843,1,1,42762.2,39712.5,1691,0.89800543,2.7290106,320.56396,292.43506,5.04613,318.171,4.4813,1.18764,26.5698,25.6048
1980-01-22 01:34:53,1,-5.2,1.65,2.2,0.269258,1,1,44123.2,40333.8,1691,0.89800912,2.7289429,320.552,292.43481,5.39317,320.533,5.55634,-0.725863,26.9893,25.8043
1980-01-22 01:36:14,1,-5.14,1.68,2.16,0.344093,1,1,42536.7,39884.3,1691,0.89801663,2.7288065,320.53613,292.43457,5.01769,318.896,2.20924,1.43124,26.4996,25.6601
1980-01-22 01:37:35,1,-4.98,1.96,2.0,0.178885,1,1,48314.1,40611.7,1691,0.89802033,2.7287388,320.52417,292.43433,5.6076,322.381,8.76909,0.287861,28.242,25.8931
1980-01-22 01:38:56,1,-4.86667,2.2,1.33333,0.338296,1,1,40106.9,41359.1,1691,0.89802408,2.7286711,320.51245,292.43433,4.86599,322.684,8.30289,-3.08584,25.7316,26.1302
1980-01-22 01:40:17,1,-5.2,1.9,2.0,0.331662,1,1,42247.5,40789.4,1691,0.89803159,2.7285357,320.50049,292.43408,5.46335,320.202,6.7234,1.36596,26.4094,25.9497
1980-01-22 01:41:38,1,-5.5,1.66667,1.93333,0.226078,1,1,37897.0,41573.8,1691,0.89803529,2.728467,320.48853,292.43384,5.12163,319.156,4.39268,0.801957,25.0127,26.198
1980-01-22 01:42:59,1,-5.28,1.8,1.68,0.301993,1,1,38380.8,40511.4,1691,0.89803904,2.7283993,320.47681,292.43384,5.26825,319.874,6.59399,-0.529509,25.1718,25.8611
1980-01-22 01:44:20,1,-5.3,1.8,1.84,0.195959,1,1,42940.1,39913.3,1691,0.89804649,2.7282639,320.46094,292.43359,5.14393,316.793,3.13215,2.88151,26.625,25.6694
1980-01-22 01:45:41,1,-5.54,0.8,1.66,0.335857,1,1,38112.2,42447.6,1691,0.89805025,2.7281961,320.44897,292.43335,5.11426,317.126,-0.628211,3.71384,25.0836,26.4719
1980-01-22 01:47:02,1,-5.1,0.5,1.7,0.0,1,1,30612.1,38584.6,1691,0.8980577,2.7280598,320.43701,292.43311,5.22746,317.371,-4.94133,3.7196,22.4804,25.2386
1980-01-22 01:48:23,1,-5.42,0.42,1.94,0.256125,1,1,40638.8,39018.5,1691,0.89806145,2.7279921,320.42529,292.43311,5.24009,320.269,-2.47571,4.18411,25.9017,25.3801
1980-01-22 01:49:44,1,-5.16667,0.483333,1.83333,0.243242,1,1,31682.1,39041.2,1691,0.89806521,2.7279243,320.41333,292.43286,4.84424,315.593,-3.49783,4.24876,22.8699,25.3875
1980-01-22 01:51:05,1,-5.05,0.0833333,1.23333,0.190029,1,1,39255.8,36371.8,1691,0.89807266,2.727788,320.40137,292.43262,5.49358,318.854,-11.0557,-1.92573,25.4572,24.5042
1980-01-22 01:52:26,1,-5.08,0.08,0.9,0.164924,1,1,38490.6,41615.0,1691,0.89807642,2.7277203,320.38965,292.43262,5.16655,316.355,-9.8247,-1.16281,25.2078,26.211
1980-01-22 01:53:47,1,-4.78,-0.8,0.58,0.308545,1,1,48314.6,38963.1,1691,0.89808017,2.7276525,320.37378,292.43237,5.07183,320.132,-14.1178,-2.38331,28.2421,25.3621
1980-01-22 01:55:08,1,-4.68333,0.8,1.26667,0.289156,1,1,32433.8,43876.7,1691,0.89808762,2.7275171,320.36182,292.43213,5.05039,319.822,-1.24444,2.75672,23.1396,26.9138
1980-01-22 01:56:29,1,-4.46667,0.8,1.26667,0.218581,1,1,29065.3,40254.4,1691,0.89809138,2.7274485,320.3501,292.43213,5.15966,322.847,0.885989,2.62517,21.9051,25.7789
1980-01-22 01:57:50,1,-4.62,0.68,0.8,0.243311,1,1,24650.7,38759.4,1691,0.89809507,2.7273808,320.33813,292.43188,5.42854,320.388,-0.0110028,1.22528,20.1731,25.2957
1980-01-22 01:59:11,1,-4.66,0.18,1.22,0.285657,1,1,34377.9,41969.8,1691,0.89810258,2.7272453,320.32617,292.43164,5.40414,322.195,-4.09794,0.130857,23.8231,26.3225
1980-01-22 02:00:32,1,-4.66667,-0.0833333,1.1,0.387657,1,1,29988.0,41673.1,1691,0.89810634,2.7271776,320.31445,292.43164,5.12704,319.766,-7.89288,1.92995,22.2501,26.2292
1980-01-22 02:01:53,1,-4.65,-0.733333,1.5,0.296742,1,1,37336.6,40133.1,1691,0.89811003,2.727109,320.29858,292.4314,5.73667,320.549,-10.5705,4.67611,24.8271,25.7401
1980-01-22 02:03:14,1,-4.11667,0.75,0.666667,0.677823,1,1,25387.4,42617.0,1691,0.89811748,2.7269735,320.28662,292.43115,4.64394,319.955,3.53991,-2.97294,20.4723,26.5246
1980-01-22 02:04:35,1,-2.74,-0.4,-0.12,0.784857,1,1,44469.3,53441.4,1691,0.89812124,2.7269058,320.27466,292.43091,5.78585,327.798,-5.70309,-13.5972,27.0949,29.7028
1980-01-22 02:05:56,1,-0.766667,4.9,2.73333,0.323179,1,1,61758.3,49221.2,1691,0.89812499,2.7268381,320.26294,292.43091,6.59308,354.954,35.7101,14.7772,31.9305,28.5058
1980-01-22 02:06:16,-1,nan,nan,nan,nan,1,4,nan,nan,1691,0.89812869,2.7267694,320.25879,292.43066,nan,nan,nan,nan,nan,nan
1980-01-22 02:07:17,1,-1.15,5.26667,2.86667,0.523078,1,1,55113.1,41711.6,1691,0.89809513,2.7561922,320.17444,292.35413,6.03743,338.611,24.6194,11.4439,30.1637,26.2414
1980-01-22 02:08:38,1,-1.96667,4.95,3.0,0.267187,1,1,63122.9,47571.4,1691,0.89813614,2.726634,320.23901,292.43042,6.03972,332.9,22.0184,12.3127,32.2813,28.0241
1980-01-22 02:09:59,1,-0.45,5.48333,2.93333,0.559265,1,1,53552.5,46815.8,1691,0.89813989,2.7265663,320.22339,292.43042,5.88716,350.169,25.6027,10.3603,29.7336,27.8006
1980-01-22 02:11:20,1,-1.88333,4.91667,3.06667,0.543139,1,1,57159.3,44540.9,1691,0.89814734,2.7264309,320.21143,292.43018,6.01292,331.955,18.3457,20.2149,30.7186,27.1167
1980-01-22 02:12:41,1,-1.86667,5.03333,2.46667,0.251661,1,1,46862.0,46261.8,1691,0.8981511,2.7263622,320.19946,292.42993,6.36706,336.545,22.3919,6.95347,27.8143,27.6356
1980-01-22 02:14:02,1,-1.11667,5.36667,3.33333,0.631796,1,1,56964.1,50873.2,1691,0.89815855,2.7262268,320.1875,292.42969,6.20471,342.76,25.1171,16.0517,30.6661,28.9803
1980-01-22 02:14:41,-1,nan,nan,nan,nan,1,4,nan,nan,1691,0.89812279,2.7557101,320.10318,292.35318,nan,nan,nan,nan,nan,nan
1980-01-22 02:15:23,1,-2.68333,4.55,3.08333,0.353946,1,1,52907.9,47395.3,1691,0.89816231,2.7261591,320.17578,292.42969,6.8411,329.041,18.4229,13.8099,29.5541,27.9721
1980-01-22 02:16:44,1,-2.64,4.6,2.98,0.32249,1,1,51112.0,47377.8,1691,0.898166,2.7260914,320.16382,292.42944,6.459,332.405,19.2777,7.04112,29.0482,27.967
1980-01-22 02:18:05,1,-2.22,4.84,3.08,0.271293,1,1,47082.0,43084.8,1691,0.89817351,2.725955,320.14795,292.4292,6.07071,332.857,20.6315,13.4156,27.8795,26.6698
1980-01-22 02:19:26,1,-2.16,4.76,3.56,0.288444,1,1,52993.6,48183.3,1691,0.89817721,2.7258873,320.13623,292.4292,6.09283,334.173,21.1918,16.6798,29.5781,28.2037
1980-01-22 02:20:47,1,-2.02,4.8,3.08,0.308545,1,1,44139.4,41819.4,1691,0.89818096,2.7258196,320.12427,292.42896,6.11388,336.235,20.4847,14.1093,26.9942,26.2753
1980-01-22 02:22:08,1,-1.31667,5.43333,3.13333,0.35473,1,1,65536.6,47061.8,1691,0.89818841,2.7256842,320.1123,292.42871,6.05259,340.462,21.4662,14.1194,32.8927,27.8735
1980-01-22 02:23:29,1,-2.08333,4.91667,3.6,0.411636,1,1,51571.1,44434.9,1691,0.89819217,2.7256155,320.10059,292.42871,5.70083,335.722,21.2695,18.2171,29.1784,27.0844
1980-01-22 02:24:50,1,-1.83333,5.03333,3.53333,0.270801,1,1,49240.1,52632.7,1691,0.89819586,2.7255478,320.08862,292.42847,6.87701,335.501,21.7503,16.5185,28.5113,29.4772
1980-01-22 03:32:41,-1,nan,nan,nan,nan,1,3,nan,nan,1691,0.89844954,2.720932,319.45923,292.42017,nan,324.636,11.9074,16.1777,nan,nan
1980-01-22 03:54:17,-1,nan,nan,nan,nan,1,4,nan,nan,1691,0.8985315,2.7194395,319.25732,292.41748,nan,nan,nan,nan,nan,nan
1980-01-22 04:15:53,-1,nan,nan,nan,nan,1,3,nan,nan,1691,0.8986097,2.7180138,319.05933,292.41479,nan,318.423,8.21213,17.2567,nan,nan
1980-01-22 04:37:29,-1,nan,nan,nan,nan,1,3,nan,nan,1691,0.89869159,2.7165222,318.85718,292.41187,nan,329.883,9.30232,29.8158,nan,nan
1980-01-22 04:59:05,-1,nan,nan,nan,nan,1,3,nan,nan,1691,0.89877349,2.7150297,318.65918,292.40918,nan,324.793,10.011,27.133,nan,nan
1980-01-22 05:20:41,-1,nan,nan,nan,nan,1,3,nan,nan,1691,0.89885157,2.7136049,318.45728,292.40649,nan,334.3,19.098,12.426,nan,nan
1980-01-22 05:42:17,-1,nan,nan,nan,nan,1,3,nan,nan,1691,0.89893335,2.7121124,318.25928,292.40381,nan,330.375,8.17793,17.1547,nan,nan
1980-01-22 06:03:53,-1,nan,nan,nan,nan,1,3,nan,nan,1691,0.89901137,2.7106876,318.05737,292.40112,nan,310.096,-2.25383,19.8899,nan,nan
1980-01-22 06:25:29,-1,nan,nan,nan,nan,1,3,nan,nan,1691,0.89909303,2.7091961,317.85938,292.39844,nan,327.31,3.05475,23.8382,nan,nan
1980-01-22 06:47:05,-1,nan,nan,nan,nan,1,3,nan,nan,1691,0.89917469,2.7077036,317.65723,292.39551,nan,321.874,9.38414,36.4777,nan,nan
1980-01-22 07:08:41,-1,nan,nan,nan,nan,1,3,nan,nan,1691,0.89925259,2.7062798,317.45923,292.39282,nan,326.216,10.4833,29.8328,nan,nan
1980-01-22 07:30:17,-1,nan,nan,nan,nan,1,3,nan,nan,1691,0.89933419,2.7047882,317.25732,292.39014,nan,321.02,13.2311,31.1163,nan,nan
1980-01-22 07:51:53,-1,nan,nan,nan,nan,1,3,nan,nan,1691,0.89941204,2.7033644,317.05542,292.38745,nan,317.992,10.8644,31.8625,nan,nan
1980-01-22 08:13:29,-1,nan,nan,nan,nan,1,3,nan,nan,1691,0.89949352,2.7018738,316.85742,292.38477,nan,320.324,19.7809,24.503,nan,nan
1980-01-22 08:35:05,-1,nan,nan,nan,nan,1,3,nan,nan,1691,0.89957494,2.7003822,316.65527,292.38184,nan,313.969,19.1466,19.6908,nan,nan
1980-01-22 08:56:41,-1,nan,nan,nan,nan,1,3,nan,nan,1691,0.89965266,2.6989594,316.45752,292.37939,nan,313.832,18.1704,30.9534,nan,nan
1980-01-22 09:18:17,-1,nan,nan,nan,nan,1,3,nan,nan,1691,0.89973402,2.6974678,316.25537,292.37646,nan,317.296,23.0953,16.3316,nan,nan
1980-01-22 09:39:53,-1,nan,nan,nan,nan,1,3,nan,nan,1691,0.89981169,2.6960449,316.05737,292.37378,nan,321.293,21.5822,5.35549,nan,nan
1980-01-22 10:01:29,-1,nan,nan,nan,nan,1,3,nan,nan,1691,0.89989299,2.6945534,315.85547,292.37109,nan,322.853,8.07318,35.9084,nan,nan
1980-01-22 10:23:05,-1,nan,nan,nan,nan,1,3,nan,nan,1691,0.89997423,2.6930637,315.65747,292.36841,nan,334.806,19.6552,25.6183,nan,nan
1980-01-22 10:44:41,-1,nan,nan,nan,nan,1,3,nan,nan,1691,0.90005177,2.6916409,315.45557,292.36572,nan,325.804,25.1565,18.5614,nan,nan
1980-01-22 11:39:34,-1,nan,nan,nan,nan,1,3,nan,nan,1691,0.90025461,2.6879158,314.94849,292.35864,nan,312.825,21.2509,11.7281,nan,nan
1980-01-22 11:39:44,-1,nan,nan,nan,nan,1,3,nan,nan,1691,0.90025461,2.6879158,314.94458,292.35864,nan,312.825,21.2509,11.7281,nan,nan
1980-01-22 11:40:05,2,-2.75,4.33667,0.0666667,0.525399,1,1,45996.0,42135.2,1691,0.9002583,2.6878481,314.94067,292.35864,7.36219,310.981,20.9845,10.5119,27.5561,26.3743
1980-01-22 11:40:15,2,-3.05,4.23,0.0475,0.0660965,1,1,44312.3,42737.6,1691,0.9002583,2.6878481,314.94067,292.35864,7.34074,310.961,21.2277,10.483,27.0471,26.5621
1980-01-22 11:40:45,2,-3.0275,4.1975,0.315,0.373045,1,1,40650.8,34718.4,1691,0.9002583,2.6878481,314.93677,292.35864,6.46666,312.193,20.1772,11.774,25.9055,23.9408
1980-01-22 11:40:55,2,-2.9,4.31,0.456667,0.164384,1,1,41159.9,34650.8,1691,0.9002583,2.6878481,314.93677,292.35864,6.47466,312.184,20.2114,11.7697,26.0672,23.9174
1980-01-22 11:41:15,2,-2.97,4.23,0.595,0.186212,1,1,37114.6,43531.9,1691,0.90026194,2.6877804,314.93262,292.3584,7.50241,312.542,23.2524,14.6832,24.7531,26.8078
1980-01-22 11:41:56,2,-3.3,4.09333,0.163333,0.225487,1,1,35327.9,35858.2,1691,0.90026194,2.6877804,314.9248,292.3584,6.82706,313.306,21.3702,17.9577,24.15,24.3306
1980-01-22 11:42:36,2,-3.225,4.18,0.1275,0.0674073,1,1,41237.1,40864.6,1691,0.90026563,2.6877127,314.9209,292.3584,6.95302,311.423,19.4336,12.8794,26.0917,25.9736
1980-01-22 11:43:17,2,-2.83,4.00667,1.30667,0.382593,1,1,41379.5,40784.1,1691,0.90026933,2.687645,314.91284,292.35815,6.82317,313.133,20.1901,13.5276,26.1367,25.948
1980-01-22 11:43:57,1,-3.18571,4.04286,4.73571,0.498825,1,1,44390.3,38341.1,1691,0.90026933,2.687645,314.90503,292.35815,7.11397,313.865,19.8502,19.2756,27.0709,25.1588
1980-01-22 11:44:38,1,-3.27614,4.03864,4.46818,0.571078,1,1,37068.4,38159.6,1691,0.90027303,2.6875772,314.90112,292.35815,7.01802,314.853,20.794,18.6524,24.7377,25.0992
1980-01-22 11:45:18,1,-1.82391,5.00109,3.25543,0.649787,1,1,48126.1,41188.8,1691,0.90024012,2.7183497,314.81662,292.28146,6.70326,310.947,17.6807,19.1634,28.187,26.0764
1980-01-22 11:45:29,1,-2.11957,4.92065,3.18587,0.463531,1,1,37310.2,33023.2,1691,0.90027672,2.6875095,314.89307,292.35791,7.10221,318.885,26.1987,11.1189,24.8183,23.349
1980-01-22 11:46:09,1,-2.435,4.755,2.535,0.565,1,1,43278.4,42079.6,1691,0.90028042,2.6874418,314.88525,292.35791,7.58835,314.549,23.3814,7.19936,26.7297,26.3569
1980-01-22 11:46:50,1,-1.97976,4.88095,2.20238,0.572428,1,1,53934.2,41245.5,1691,0.90028042,2.6874418,314.88135,292.35791,9.10539,318.889,26.3139,5.58651,29.8394,26.0943
1980-01-22 11:47:30,1,-2.76087,4.61848,2.29022,0.409386,1,1,47940.0,43591.5,1691,0.90028405,2.6873741,314.87329,292.35767,7.49441,315.282,20.1613,5.69174,28.1324,26.8262
1980-01-22 11:48:11,1,-2.93068,4.68864,2.33409,0.426315,1,1,47448.9,38321.8,1691,0.90028775,2.6873064,314.86938,292.35767,6.42671,315.58,21.3966,5.45964,27.988,25.1525
1980-01-22 11:48:51,1,-2.72609,4.7663,1.99565,0.486348,1,1,52702.7,36386.7,1691,0.90028775,2.6873064,314.86157,292.35767,6.96668,317.883,20.0844,3.26127,29.4968,24.5092